Weather observations for the past three days for
Hatteras, Mitchell Field
| Date | Time (edt) | Wind (mph) | Vis. (mi.) | Weather | Sky Cond. | Temperature (ºF) | Relative Humidity | Wind Chill (°F) | Heat Index (°F) | Pressure | Precipitation (in) | ||||||
|---|---|---|---|---|---|---|---|---|---|---|---|---|---|---|---|---|---|
| Air | Dwpt | 6 hour | altimeter (in) | sea level (mb) | 1 hr | 3 hr | 6 hr | ||||||||||
| Max. | Min. | ||||||||||||||||
| 03 | 02:51 | W 3 | 9.00 | Fair | CLR | 81 | 77 | 88% | 88 | 30.03 | 1016.7 | ||||||
| 03 | 01:51 | Vrbl 5 | 10.00 | Fair | CLR | 81 | 78.1 | 82.9 | 81 | 91% | 89 | 30.04 | 1017.0 | ||||
| 03 | 00:51 | SW 5 | 10.00 | Fair | CLR | 81 | 79 | 94% | 89 | 30.03 | 1016.9 | ||||||
| 02 | 23:51 | W 3 | 10.00 | Fair | CLR | 82 | 78.1 | 88% | 91 | 30.04 | 1017.2 | ||||||
| 02 | 22:51 | SW 6 | 10.00 | Fair | CLR | 82 | 78.1 | 88% | 91 | 30.04 | 1017.2 | ||||||
| 02 | 21:51 | SW 7 | 10.00 | Fair | CLR | 82 | 77 | 85% | 90 | 30.03 | 1017.0 | ||||||
| 02 | 20:51 | SW 8 | 10.00 | Fair | CLR | 82.9 | 77 | 82% | 92 | 30.03 | 1016.8 | ||||||
| 02 | 19:51 | SW 7 | 10.00 | Fair | CLR | 82.9 | 78.1 | 88 | 82.9 | 85% | 93 | 30.04 | 1017.1 | ||||
| 02 | 18:51 | SW 5 | 10.00 | Fair | CLR | 84 | 77 | 80% | 94 | 30.04 | 1017.2 | ||||||
| 02 | 17:51 | SW 7 | 10.00 | Fair | CLR | 84.9 | 77 | 77% | 95 | 30.04 | 1017.3 | ||||||
| 02 | 16:51 | S 8 | 10.00 | Fair | CLR | 87.1 | 75.9 | 70% | 98 | 30.02 | 1016.6 | ||||||
| 02 | 15:51 | SW 9 | 10.00 | Fair | CLR | 87.1 | 77 | 72% | 99 | 30.04 | 1017.1 | ||||||
| 02 | 14:51 | SW 9 | 10.00 | Fair | CLR | 87.1 | 79 | 77% | 101 | 30.05 | 1017.4 | ||||||
| 02 | 13:51 | SW 8 | 10.00 | Fair | CLR | 88 | 78.1 | 90 | 82 | 73% | 102 | 30.06 | 1017.8 | ||||
| 02 | 12:51 | SW 9 | 10.00 | Fair | CLR | 87.1 | 78.1 | 75% | 100 | 30.06 | 1017.9 | ||||||
| 02 | 11:51 | SW 6 | 10.00 | Fair | CLR | 87.1 | 75.9 | 70% | 98 | 30.06 | 1017.9 | ||||||
| 02 | 10:51 | Vrbl 6 | 10.00 | Fair | CLR | 87.1 | 73.9 | 65% | 95 | 30.06 | 1018.0 | ||||||
| 02 | 09:51 | SW 9 | 10.00 | Fair | CLR | 84 | 77 | 80% | 94 | 30.05 | 1017.6 | ||||||
| 02 | 08:51 | Vrbl 6 | 10.00 | Fair | CLR | 82.9 | 78.1 | 85% | 93 | 30.06 | 1017.7 | ||||||
| 02 | 07:51 | Vrbl 3 | 5.00 | Fog/Mist | CLR | 82 | 78.1 | 82 | 80.1 | 88% | 91 | 30.06 | 1017.9 | ||||
| 02 | 06:51 | Vrbl 5 | 6.00 | Fog/Mist | CLR | 80.1 | 77 | 90% | 86 | 30.05 | 1017.5 | ||||||
| 02 | 05:51 | Vrbl 6 | 9.00 | Fair | CLR | 80.1 | 77 | 90% | 86 | 30.05 | 1017.4 | ||||||
| 02 | 04:51 | W 6 | 10.00 | Fair | CLR | 80.1 | 77 | 90% | 86 | 30.04 | 1017.3 | ||||||
| 02 | 03:51 | W 6 | 10.00 | Fair | CLR | 81 | 77 | 88% | 88 | 30.04 | 1017.1 | ||||||
| 02 | 02:51 | Vrbl 5 | 10.00 | Fair | CLR | 81 | 77 | 88% | 88 | 30.06 | 1017.7 | ||||||
| 02 | 01:51 | W 7 | 10.00 | Fair | CLR | 82 | 75.9 | 82.9 | 82 | 82% | 89 | 30.06 | 1017.8 | ||||
| 02 | 00:51 | Vrbl 5 | 10.00 | Fair | CLR | 82 | 75 | 79% | 89 | 30.06 | 1017.7 | ||||||
| 01 | 23:51 | SW 7 | 10.00 | Fair | CLR | 82 | 75 | 79% | 89 | 30.04 | 1017.3 | ||||||
| 01 | 22:51 | SW 8 | 10.00 | Fair | CLR | 82 | 75 | 79% | 89 | 30.03 | 1016.9 | ||||||
| 01 | 20:51 | SW 8 | 10.00 | Fair | CLR | 82.9 | 75 | 77% | 90 | 30.03 | 1016.7 | ||||||
| 01 | 19:51 | SW 8 | 10.00 | Fair | CLR | 82.9 | 75 | 87.1 | 82.9 | 77% | 90 | 30.02 | 1016.6 | ||||
| 01 | 18:51 | S 8 | 10.00 | Fair | CLR | 82.9 | 73 | 72% | 89 | 30.04 | 1017.0 | ||||||
| 01 | 17:51 | S 9 | 10.00 | Fair | CLR | 84.9 | 73.9 | 70% | 92 | 30.03 | 1017.0 | ||||||
| 01 | 16:51 | S 8 | 10.00 | Fair | CLR | 86 | 75 | 70% | 95 | 30.04 | 1017.1 | ||||||
| 01 | 15:51 | S 8 | 10.00 | Fair | CLR | 87.1 | 75 | 67% | 97 | 30.05 | 1017.5 | ||||||
| 01 | 14:51 | S 7 | 10.00 | Fair | CLR | 87.1 | 75 | 67% | 97 | 30.06 | 1017.8 | ||||||
| 01 | 13:51 | Vrbl 5 | 10.00 | Fair | CLR | 87.1 | 75 | 87.1 | 78.1 | 67% | 97 | 30.07 | 1018.4 | ||||
| 01 | 12:51 | SW 7 | 10.00 | Fair | CLR | 84.9 | 75 | 72% | 93 | 30.08 | 1018.4 | ||||||
| 01 | 11:51 | NW 5 | 10.00 | Fair | CLR | 84.9 | 73.9 | 70% | 92 | 30.08 | 1018.5 | ||||||
| 01 | 10:51 | NW 6 | 10.00 | Fair | CLR | 84 | 75.9 | 77% | 93 | 30.09 | 1019.0 | ||||||
| 01 | 09:51 | Vrbl 6 | 10.00 | Mostly Cloudy | BKN016 | 84 | 75.9 | 77% | 93 | 30.09 | 1018.9 | ||||||
| 01 | 08:51 | Calm | 10.00 | A Few Clouds | FEW021 | 82.9 | 75 | 77% | 90 | 30.09 | 1018.9 | ||||||
| 01 | 07:51 | Calm | 10.00 | A Few Clouds | FEW018 | 78.1 | 77 | 78.1 | 72 | 97% | 81 | 30.08 | 1018.4 | ||||
| 01 | 06:51 | Calm | 9.00 | A Few Clouds | FEW020 | 75 | 73.9 | 96% | 73 | 30.07 | 1018.1 | ||||||
| 01 | 05:51 | Calm | 10.00 | Partly Cloudy | SCT018 SCT022 | 73.9 | 73 | 97% | 30.06 | 1017.8 | |||||||
| 01 | 04:51 | Calm | 10.00 | A Few Clouds | FEW016 | 73 | 72 | 96% | 30.06 | 1017.9 | |||||||
| 01 | 03:51 | Calm | 10.00 | Fair | CLR | 73 | 72 | 96% | 30.07 | 1018.1 | |||||||
| 01 | 02:51 | Calm | 10.00 | Fair | CLR | 73.9 | 73 | 97% | 30.07 | 1018.3 | |||||||
| 01 | 01:51 | Calm | 10.00 | Fair | CLR | 73.9 | 73 | 79 | 73 | 97% | 30.08 | 1018.5 | |||||
| 01 | 00:51 | Calm | 10.00 | Fair | CLR | 73.9 | 72 | 94% | 30.08 | 1018.7 | |||||||
| 31 | 23:51 | Calm | 10.00 | Fair | CLR | 73.9 | 73 | 97% | 30.09 | 1018.8 | |||||||
| 31 | 22:51 | Calm | 10.00 | Fair | CLR | 75 | 73 | 94% | 73 | 30.09 | 1018.8 | ||||||
| 31 | 21:51 | Calm | 10.00 | Fair | CLR | 75 | 73 | 94% | 73 | 30.09 | 1018.9 | ||||||
| 31 | 20:51 | SE 5 | 10.00 | Fair | CLR | 78.1 | 73.9 | 87% | 81 | 30.08 | 1018.5 | ||||||
| 31 | 19:51 | E 5 | 10.00 | Fair | CLR | 78.1 | 73 | 88 | 78.1 | 85% | 81 | 30.08 | 1018.4 | ||||
| 31 | 18:51 | SE 6 | 10.00 | Fair | CLR | 82 | 73.9 | 77% | 88 | 30.08 | 1018.5 | ||||||
| 31 | 17:51 | SE 7 | 10.00 | Fair | CLR | 84 | 73 | 70% | 90 | 30.08 | 1018.6 | ||||||
| 31 | 16:51 | SE 6 | 10.00 | Fair | CLR | 84.9 | 73 | 68% | 92 | 30.07 | 1018.2 | ||||||
| 31 | 15:51 | Vrbl 5 | 10.00 | Fair | CLR | 87.1 | 73 | 63% | 95 | 30.08 | 1018.6 | ||||||
| 31 | 14:51 | SE 6 | 10.00 | Fair | CLR | 87.1 | 72 | 61% | 94 | 30.1 | 1019.3 | ||||||
| 31 | 13:51 | Vrbl 3 | 8.00 | Partly Cloudy | SCT029 | 87.1 | 73.9 | 87.1 | 80.1 | 65% | 95 | 30.11 | 1019.6 | ||||
| 31 | 12:51 | E 5 | 10.00 | A Few Clouds | FEW027 | 84.9 | 72 | 65% | 91 | 30.12 | 1020.0 | ||||||
| 31 | 11:51 | Vrbl 5 | 10.00 | Fair | CLR | 84.9 | 72 | 65% | 91 | 30.13 | 1020.2 | ||||||
| 31 | 10:51 | Vrbl 5 | 10.00 | Fair | CLR | 84 | 73.9 | 72% | 91 | 30.13 | 1020.2 | ||||||
| 31 | 09:51 | Vrbl 3 | 10.00 | Fair | CLR | 82.9 | 73.9 | 74% | 89 | 30.11 | 1019.7 | ||||||
| 31 | 08:51 | Vrbl 3 | 10.00 | Partly Cloudy | SCT014 | 82 | 75.9 | 82% | 89 | 30.11 | 1019.4 | ||||||
| 31 | 07:51 | Calm | 10.00 | Fair | CLR | 80.1 | 75.9 | 80.1 | 73.9 | 87% | 85 | 30.09 | 1018.9 | ||||
| 31 | 06:51 | N 3 | 10.00 | A Few Clouds | FEW011 | 78.1 | 75.9 | 93% | 81 | 30.1 | 1019.2 | ||||||
| 31 | 05:51 | N 3 | 10.00 | Fair | CLR | 75.9 | 73.9 | 94% | 75 | 30.09 | 1018.8 | ||||||
| 31 | 04:51 | NW 3 | 10.00 | Fair | CLR | 73.9 | 73 | 97% | 30.08 | 1018.5 | |||||||
| 31 | 03:51 | Calm | 10.00 | Fair | CLR | 75 | 73.9 | 96% | 73 | 30.08 | 1018.7 | ||||||
| Date | Time (edt) | Wind (mph) | Vis. (mi.) | Weather | Sky Cond. | Air | Dwpt | Max. | Min. | Relative Humidity | Wind Chill (°F) | Heat Index (°F) | altimeter (in) | sea level (mb) | 1 hr | 3 hr | 6 hr |
| 6 hour | |||||||||||||||||
| Temperature (ºF) | Pressure | Precipitation (in) | |||||||||||||||